www.pogodaiklimat.ru

Погода и климат >> Архив погоды >> Великобритания >> Авиабаза Brize Norton


ПОГОДА на Авиабазе Brize Norton

  • Прогноз погоды на Авиабазе Brize Norton
  • Монитор погоды на Авиабазе Brize Norton

АРХИВ ПОГОДЫ на Авиабазе Brize Norton

Время (UTC), дата Ветер
(напр.,м/с)
 
Видим.   Явления Облачность Т
(С)
Тd
(С)
f
(%)
Тe
(С)
Тes
(С)
Комфортность P
(гПа)
Po
(гПа)
Тmin
(С)
Tmax
(С)
R
(мм)
R24
(мм)
S
(см)
13 18.08 З 5 40 км 4/3 1140 м
[Cu hum Ac trans]
+19.6 +10.1 54 +21 +25 комфорт 1004.5 994.9
14 18.08 З 5 40 км 4/3 1200 м
[Cu hum Ac trans]
+19.7 +10.2 54 +21 +25 комфорт 1005.0 995.4
15 18.08 З 6 40 км 4/1 1260 м
[Cu hum Ac trans]
+19.7 +9.7 52 +20 +23 1005.4 995.8
16 18.08 З 6 40 км 6/3 1260 м
[Sc diur, vesp Ac trans]
+18.9 +8.8 52 +19 +20 1005.9 996.3
17 18.08 З 5 40 км 9/9 1050 м
[Cu Sc]
+17.4 +9.9 61 +17 +17 1006.3 996.6
18 18.08 З 4 40 км 3/1 1140 м
[Cu hum Ac trans]
+17.2 +9.7 61 +17 +17 1006.4 996.7 +20.3 1
19 18.08 З 5 30 км 1/1 1140 м
[Cu Sc]
+16.2 +9.8 66 +15 +15 1006.9 997.2
20 18.08 ЮЗ 3 30 км 1/1 840 м
[Sc]
+15.2 +9.9 71 +15 +15 1007.3 997.6
21 18.08 ЮЗ 2 30 км 1/1 840 м
[Sc]
+14.3 +10.3 77 +14 +14 1008.0 998.3
22 18.08 ЮЗ 3 30 км 3/3 700 м
[Sc]
+13.9 +10.6 80 +13 +13 1008.6 998.8
23 18.08 ЮЗ 3 30 км 3/3 700 м
[Sc]
+13.6 +10.6 82 +12 +12 1009.2 999.4
00 19.08 ЮЗ 2 30 км 3/3 960 м
[Sc]
+12.9 +10.4 85 +12 +12 1009.4 999.6
01 19.08 ЮЗ 2 30 км 1/1 960 м
[Sc]
+12.8 +10.7 87 +12 +12 1009.5 999.7
02 19.08 З 3 30 км 3/3 630 м
[Sc]
+12.5 +10.4 87 +11 +11 1009.7 999.8
03 19.08 ЮЗ 3 28 км 3/3 630 м
[Sc]
+12.2 +10.4 89 +11 +11 1009.7 999.9
04 19.08 ЮЗ 1 28 км 4/4 540 м
[Sc]
+12.0 +10.5 91 +12 +12 1010.5 1000.6
05 19.08 ЮЗ 2 25 км 9/8 420 м
[Sc Ac trans]
+12.3 +10.9 91 +12 +12 1010.8 1001.0
06 19.08 ЮЗ 3 25 км 9/8 330 м
[Sc Ac trans]
+13.0 +11.1 88 +12 +12 1011.2 1001.4 +12.0
07 19.08 ЮЗ 2 25 км 8/8 330 м
[Cu Sc]
+13.5 +11.4 87 +13 +13 1011.7 1001.9
08 19.08 З 4 30 км 4/4 420 м
[Cu Sc Ac trans]
+15.5 +12.1 80 +15 +17 1012.1 1002.4
09 19.08 ЮЗ 3 30 км 6/5 480 м
[Cu hum Ac trans]
+16.0 +11.6 75 +16 +18 1012.8 1003.0
10 19.08 ЮЗ 4 30 км 6/4 660 м
[Cu med, cong Ac trans]
+17.1 +10.8 66 +17 +20 1012.9 1003.2
11 19.08 ЮЗ 4 30 км 8/3 700 м
[Cu med, cong Ac trans]
+17.3 +11.5 69 +17 +21 1013.4 1003.7
12 19.08 З 4 30 км осадки на расстоянии 8/3 900 м
[Cu med, cong Ac trans Ci sp]
+18.5 +10.9 61 +19 +23 1013.5 1003.8
13 19.08 З 6 40 км 8/4 1020 м
[Cu med, cong Ac trans]
+20.2 +10.8 55 +22 +24 комфорт 1014.0 1004.4
14 19.08 З 5 40 км 6/3 1350 м
[Cu med, cong Ac trans]
+20.1 +8.6 47 +21 +24 комфорт 1014.1 1004.5
15 19.08 З 6-13
{13}
40 км осадки на расстоянии 5/3 1140 м
[Cu med, cong Ac trans]
+19.1 +9.5 54 +19 +21 1014.7 1005.0
16 19.08 З 5 40 км слаб. ливневой дождь 5/5 1260 м
[Cu Sc]
+17.7 +9.6 59 +17 +19 1015.2 1005.5
17 19.08 З 6 40 км в посл. час ливневой дождь 3/3 1260 м
[Cu Sc Ac trans]
+17.7 +9.3 58 +17 +18 1015.5 1005.7
18 19.08 З 5 40 км {ливн. осадки} 1/1 1320 м
[Cu Sc]
+17.8 +8.3 54 +17 +18 1015.9 1006.2 +21.0 0.0
19 19.08 З 5 35 км 1/1 1320 м
[Cu Sc]
+16.3 +9.5 64 +15 +15 1016.6 1006.8
20 19.08 З 3 35 км 1/1 2000 м
[Sc]
+15.0 +9.7 71 +14 +14 1017.2 1007.4
21 19.08 ЮЗ 2 35 км 1/1 2000 м
[Sc]
+14.0 +9.8 76 +13 +13 1017.9 1008.0
22 19.08 ЮЗ 1 35 км ясно +12.9 +9.5 80 +13 +13 1018.4 1008.5
23 19.08 ЮЗ 2 35 км ясно +12.1 +9.4 84 +11 +11 1018.8 1008.8
00 20.08 ЮЗ 2 35 км ясно +11.4 +9.5 88 +11 +11 1019.0 1009.0
01 20.08 З 1 35 км ясно +11.0 +9.5 90 +11 +11 1019.1 1009.1
02 20.08 З 2 30 км ясно +11.0 +9.6 91 +10 +10 1019.0 1009.0
03 20.08 З 2 30 км 1/0
[Ac trans]
+10.3 +9.2 93 +9 +9 1019.5 1009.5
04 20.08 З 1 28 км 1/1 2000 м
[Sc]
+9.6 +8.7 94 +9 +9 1019.8 1009.7
05 20.08 З 2 15 км 1/1 2000 м
[Sc]
+9.3 +8.7 96 +8 +8 1020.2 1010.1
06 20.08 З 2 25 км 1/1 2000 м
[Sc]
+9.9 +9.2 95 +9 +9 1020.8 1010.8 +9.3
07 20.08 З 2 25 км 1/1 2000 м
[Sc]
+11.6 +10.4 92 +11 +13 1021.4 1011.4
08 20.08 З 2 25 км 1/1 420 м
[Cu Sc]
+13.9 +10.2 78 +13 +17 1021.9 1012.0
09 20.08 З 3 30 км 1/1 600 м
[Cu Sc]
+15.5 +9.9 69 +15 +20 1022.6 1012.7
10 20.08 З 3 30 км 3/3 900 м
[Cu Sc]
+17.1 +8.6 57 +17 +23 1022.8 1013.0
11 20.08 З 4 30 км 4/4 1050 м
[Cu Sc]
+16.6 +8.5 59 +16 +21 1023.0 1013.2
12 20.08 З 4 35 км 4/4 1350 м
[Cu Sc]
+18.1 +6.8 48 +18 +24 1023.1 1013.3
13 20.08 З 4 40 км 4/4 1500 м
[Cu Sc]
+19.4 +6.1 42 +20 +25 1023.3 1013.6
14 20.08 З 4 35 км 4/4 1500 м
[Cu hum]
+18.9 +5.4 41 +19 +24 1023.6 1013.8
15 20.08 З 4 40 км 3/3 1500 м
[Cu hum]
+19.6 +6.0 41 +20 +24 1023.9 1014.1
16 20.08 З 4 35 км 8/1 1500 м
[Cu hum Ci fib]
+19.7 +6.4 42 +21 +23 комфорт 1023.9 1014.1
17 20.08 З 4 40 км 8/1 1500 м
[Sc Ac As Ci fib]
+18.6 +7.6 49 +19 +20 1024.3 1014.5
18 20.08 З 4 40 км 8/1 1200 м
[Sc Ci fib]
+18.5 +8.4 52 +19 +19 1024.8 1015.0 +20.2
19 20.08 З 3 40 км 9/8 1500 м
[Sc Ac trans]
+17.3 +9.1 59 +17 +17 1025.3 1015.5
20 20.08 З 3 40 км 9/8 1500 м
[Sc diur, vesp Ac trans]
+16.4 +9.8 65 +16 +16 1025.9 1016.0
21 20.08 З 3 40 км 9/9 1140 м
[Sc diur, vesp]
+15.8 +10.7 72 +16 +16 1026.2 1016.3
22 20.08 ЮЗ 2 30 км 9/8 1350 м
[Sc diur, vesp Ac trans]
+15.1 +11.0 76 +15 +15 1026.4 1016.4
23 20.08 ЮЗ 1 30 км 1/1 1500 м
[Sc diur, vesp]
+13.9 +11.0 83 +14 +14 1026.4 1016.4
00 21.08 ЮЗ 1 30 км 1/1 1500 м
[Sc]
+13.1 +10.8 86 +13 +13 1026.5 1016.5
01 21.08 ЮЗ 1 28 км ясно +12.7 +10.8 88 +13 +13 1026.4 1016.4
02 21.08 ЮЗ 1 25 км 1/1 600 м
[Sc]
+11.7 +10.1 90 +12 +12 1026.7 1016.7
03 21.08 З 1 25 км 5/3 480 м
[Sc Ac trans]
+11.2 +10.0 92 +12 +12 1026.8 1016.7
04 21.08 ЮЗ 1 20 км 3/1 1200 м
[Sc Ac trans]
+10.7 +9.8 94 +11 +11 1026.8 1016.7
05 21.08 З 1 12 км местами туман поземный 3/1 1200 м
[Sc Ac trans Ci fib]
+10.1 +9.2 94 +10 +10 1026.9 1016.8
06 21.08 СЗ 1 12 км 9/0
[Ac trans Cs]
+10.3 +9.7 96 +11 +11 1027.0 1016.9 +9.8
07 21.08 ЮЗ 1 20 км 9/0
[Ac As Ci fib]
+12.0 +11.1 94 +12 +13 1027.4 1017.4
08 21.08 З 2 22 км 9/1 360 м
[St Ac trans Ci fib]
+13.8 +11.9 88 +14 +16 1027.4 1017.4
09 21.08 ЮЗ 2 25 км 9/1 360 м
[Cu hum Ci fib]
+16.4 +13.0 80 +16 +22 1027.1 1017.2
10 21.08 З 3 25 км 4/1 750 м
[Cu hum Ci fib]
+18.3 +11.9 66 +19 +26 1026.9 1017.1
11 21.08 ЮЗ 4 30 км 6/3 1050 м
[Cu med, cong Cc]
+19.4 +11.0 58 +21 +26 комфорт 1026.4 1016.6
12 21.08 З 4 30 км 5/4 1320 м
[Cu hum Ci fib]
+20.8 +9.3 48 +22 +27 комфорт 1026.2 1016.5
13 21.08 З 4 35 км 9/4 1300 м
[Cu hum Ci fib]
+20.6 +10.4 52 +23 +27 комфорт 1025.8 1016.1
14 21.08 ЮЗ 3 30 км 9/4 1350 м
[Cu hum Cs]
+20.6 +9.6 49 +22 +27 комфорт 1025.2 1015.4
15 21.08 ЮЗ 4 30 км 9/4 1260 м
[Cu hum Cc]
+20.7 +10.7 53 +23 +26 комфорт 1024.8 1015.1
16 21.08 ЮЗ 4 30 км 9/4 1260 м
[Cu Sc Ci sp]
+20.6 +9.8 50 +22 +24 комфорт 1024.5 1014.8
17 21.08 З 4 40 км 8/4 1350 м
[Cu Sc Ci sp]
+20.6 +9.0 47 +22 +23 комфорт 1024.3 1014.6
18 21.08 ЮЗ 2 40 км 8/3 1350 м
[Cu Sc Cs]
+19.7 +9.2 51 +21 +22 комфорт 1024.1 1014.4 +21.5
19 21.08 ЮЗ 2 40 км 9/3 1500 м
[Sc diur, vesp Cs]
+18.2 +9.8 58 +19 +19 1024.3 1014.5
20 21.08 ЮЗ 2 40 км 9/1 1500 м
[Sc diur, vesp Cs]
+16.8 +10.3 65 +17 +17 1024.6 1014.8
21 21.08 ЮЗ 2 35 км 9/0
[Cs]
+15.7 +10.8 73 +16 +16 1024.9 1015.0
22 21.08 ЮЗ 2 40 км 9/0
[Cs]
+14.9 +11.0 77 +15 +15 1025.1 1015.1
23 21.08 ЮЗ 2 30 км 9/0
[Cs]
+14.1 +11.1 82 +14 +14 1024.7 1014.8
00 22.08 ЮЗ 2 30 км 9/0
[Cs]
+13.6 +11.2 85 +13 +13 1024.4 1014.5
01 22.08 ЮЗ 2 25 км 9/0
[Cs]
+12.9 +10.9 88 +12 +12 1024.3 1014.3
02 22.08 ЮЗ 2 25 км 8/0
[Cs]
+12.6 +10.9 89 +12 +12 1024.2 1014.2
03 22.08 ЮЗ 2 25 км 6/0
[Cs]
+12.1 +10.5 90 +11 +11 1024.0 1014.0
04 22.08 ЮЗ 2 25 км 3/0
[Ac trans Cs]
+11.7 +10.2 91 +10 +10 1023.6 1013.6
05 22.08 З 2 25 км 4/0
[Ac trans Ci fib]
+12.0 +10.5 91 +11 +11 1023.8 1013.8
06 22.08 ЮЗ 2 20 км 1/0
[Ac trans Ci fib]
+12.3 +10.6 89 +11 +12 1023.9 1013.9 +11.7
07 22.08 ЮЗ 2 20 км 5/1 600 м
[Cu Sc Ac trans Ci fib]
+13.7 +11.3 85 +13 +14 1024.2 1014.2
08 22.08 ЮЗ 3 30 км зарница 9/8 420 м
[St Ac trans Ci fib]
+15.2 +11.5 79 +14 +15 1024.5 1014.6
09 22.08 ЮЗ 4 30 км 9/3 500 м
[Cu hum Ac trans Ci fib]
+17.0 +12.8 76 +17 +19 1024.4 1014.6
10 22.08 ЮЗ 4 30 км 8/5 660 м
[Cu hum Ci fib]
+18.7 +13.3 71 +19 +22 1024.4 1014.6
11 22.08 ЮЗ 4 35 км 8/6 700 м
[Cu Sc Ci fib]
+19.7 +13.3 67 +21 +24 комфорт 1024.1 1014.4
12 22.08 З 4 40 км 9/9 800 м
[Cu Sc Ci fib]
+19.8 +13.5 67 +22 +23 комфорт 1024.3 1014.5
13 22.08 ЮЗ 4 40 км 9/9 840 м
[Cu Sc Ci fib]
+20.8 +13.5 63 +24 +25 комфорт 1024.1 1014.4
14 22.08 З 4 40 км 9/9 960 м
[Cu Sc Ci fib]
+21.4 +12.7 58 +24 +25 комфорт 1023.9 1014.2
15 22.08 З 4 40 км 9/9 1140 м
[Sc Ci fib]
+21.5 +12.9 58 +24 +25 комфорт 1023.8 1014.1
16 22.08 З 4 40 км 9/5 840 м
[Cu Sc Ac trans Ci fib]
+21.2 +13.0 59 +23 +24 комфорт 1023.8 1014.1
17 22.08 З 4 40 км 8/8 900 м
[Cu Sc Ci fib]
+21.2 +13.8 63 +24 +24 комфорт 1023.8 1014.1
18 22.08 З 4 40 км 9/8 840 м
[Cu Sc Ci fib]
+20.1 +13.5 66 +22 +22 комфорт 1024.0 1014.2 +22.2
19 22.08 З 3 30 км 9/1 1200 м
[Sc diur, vesp Cs]
+19.0 +13.4 70 +20 +20 1024.3 1014.5
20 22.08 ЮЗ 2 40 км 8/1 1200 м
[Sc diur, vesp Cs]
+17.7 +13.7 77 +18 +18 1024.8 1015.0
21 22.08 З 3 40 км 8/0
[Cs]
+17.2 +13.9 81 +17 +17 1024.9 1015.0
22 22.08 Ю 1 30 км 3/0
[Ci fib]
+16.3 +14.0 86 +17 +17 1025.2 1015.3
23 22.08 ЮЗ 2 30 км 3/0
[Ci fib]
+15.6 +13.9 90 +16 +16 1025.2 1015.3
00 23.08 ЮЗ 2 25 км 3/0
[Ci fib]
+15.2 +13.8 91 +15 +15 1025.3 1015.4
01 23.08 Ю 1 20 км 3/0
[Ci fib]
+14.6 +13.5 93 +15 +15 1025.3 1015.4
02 23.08 З 1 15 км 3/0
[Ci fib]
+14.2 +13.4 95 +15 +15 1025.1 1015.1
03 23.08 Ю 1 4000 м дымка 4/4 60 м
[St]
+13.5 +12.8 96 +14 +14 1025.1 1015.2
04 23.08 штиль 0 3000 м дымка 8/8 60 м
[St]
+12.8 +12.2 96 +12 +12 1024.9 1015.0
05 23.08 СЗ 1 12 км местами туман поземный 8/8 300 м
[St]
+12.8 +12.2 96 +14 +14 1025.0 1015.0
06 23.08 СВ 1 15 км 9/9 300 м
[St]
+13.1 +12.6 97 +14 +14 1025.1 1015.1 +12.5
07 23.08 Ю 1 20 км 9/9 330 м
[St]
+14.8 +14.3 97 +15 +15 1025.3 1015.4
08 23.08 ЮЗ 2 25 км 9/9 330 м
[St]
+17.1 +15.2 89 +18 +18 1025.2 1015.4
09 23.08 З 2 30 км 8/4 420 м
[Cu hum Ci fib]
+18.8 +15.4 81 +21 +25 комфорт 1025.2 1015.4
10 23.08 Ю 3 30 км 8/4 600 м
[Cu hum Ci fib]
+20.0 +14.9 72 +23 +27 комфорт 1024.9 1015.1
11 23.08 Ю 3 30 км 4/3 750 м
[Cu hum Ci fib]
+21.7 +14.4 63 +25 +31 комфорт 1024.4 1014.8
12 23.08 ЮЗ 2 35 км 4/3 840 м
[Cu hum Ci fib]
+22.6 +14.9 62 +26 +35 жарко 1024.0 1014.4
13 23.08 ЮЗ 3 35 км 3/3 1000 м
[Cu hum Ci fib]
+23.8 +14.7 57 +27 +33 жарко 1023.6 1014.0
14 23.08 ЮЗ 2 30 км 1/1 1140 м
[Cu hum Ci fib]
+24.9 +15.1 54 +28 +37 жарко 1023.1 1013.5
15 23.08 ЮВ 2 30 км 1/1 1410 м
[Cu hum Ci fib]
+25.2 +13.6 49 +27 +35 жарко 1022.4 1012.8
16 23.08 ЮЗ 3 40 км 1/1 1500 м
[Cu hum Ci fib]
+25.6 +12.9 45 +27 +31 жарко 1022.0 1012.4
17 23.08 Ю 3 40 км 1/1 1500 м
[Cu hum Ci fib]
+25.5 +13.1 46 +27 +29 жарко 1021.4 1011.9
18 23.08 Ю 2 40 км 1/1 1500 м
[Sc Ci fib]
+24.9 +12.7 47 +27 +27 жарко 1021.2 1011.7 +26.1
19 23.08 Ю 2 40 км 3/1 1500 м
[Cu hum Cc]
+23.2 +11.9 49 +26 +26 жарко 1021.4 1011.8
20 23.08 Ю 1 40 км 3/0
[Ci fib]
+20.7 +10.9 53 +24 +24 комфорт 1021.6 1011.9
21 23.08 ЮЗ 1 40 км 1/0
[Ci fib]
+19.0 +11.9 63 +21 +21 комфорт 1021.6 1011.9
22 23.08 штиль 0 40 км 1/0
[Ci fib]
+16.1 +11.2 73 +16 +16 1021.6 1011.7
23 23.08 В 1 40 км 1/0
[Ci fib]
+14.9 +11.3 79 +16 +16 1021.5 1011.6
00 24.08 В 1 35 км 4/0
[Ci fib]
+13.2 +10.6 84 +14 +14 1021.5 1011.6
01 24.08 В 1 35 км 1/0
[Ci fib]
+12.0 +9.7 86 +12 +12 1021.3 1011.3
02 24.08 СВ 2 30 км н/о +11.3 +9.4 88 +10 +10 1021.1 1011.1
03 24.08 СВ 1 35 км ясно +10.9 +9.1 89 +11 +11 1020.9 1010.9
04 24.08 штиль 0 30 км 1/0
[Ci fib]
+10.9 +9.1 89 +10 +10 1020.7 1010.7
05 24.08 В 1 25 км туман на расстоянии 4/0
[Cc]
+10.6 +8.8 89 +10 +10 1020.5 1010.5
06 24.08 В 1 25 км туман на расстоянии 6/0
[Ac trans Ci fib]
+11.4 +10.0 91 +12 +12 1020.4 1010.4 +10.4
07 24.08 В 2 25 км 6/0
[Ac trans Ci fib]
+13.5 +11.5 88 +13 +15 1020.1 1010.2
08 24.08 В 2 30 км 6/0
[Ac trans Ci fib]
+16.8 +13.3 80 +17 +21 1020.0 1010.2
09 24.08 В 3 25 км 6/0
[Ac trans Ci fib]
+19.3 +13.7 70 +21 +26 комфорт 1019.8 1010.1
10 24.08 В 2 25 км 6/0
[Ac trans Ci fib]
+21.9 +13.8 60 +25 +33 комфорт 1019.5 1009.9
11 24.08 ЮВ 4 25 км 6/0
[Ac trans Ci fib]
+24.6 +13.5 50 +27 +34 жарко 1018.9 1009.4
12 24.08 Ю 4 35 км 4/0
[Ac trans Ci fib]
+27.3 +10.2 34 +28 +35 жарко 1018.2 1008.8
13 24.08 Ю 4 40 км 4/0
[Ac trans Ci fib]
+27.7 +9.0 31 +28 +35 жарко 1017.8 1008.4
14 24.08 Ю 4 35 км 4/0
[Ac trans Ci fib]
+27.4 +9.9 33 +28 +34 жарко 1017.6 1008.2
15 24.08 ЮВ 4 35 км 4/0
[Ac trans Ci fib]
+28.2 +11.5 35 +29 +34 жарко 1017.0 1007.6
16 24.08 ЮВ 4 35 км 4/0
[Ci fib]
+28.3 +10.5 33 +29 +32 жарко 1016.6 1007.2
17 24.08 Ю 3 45 км 4/0
[Ci fib]
+27.9 +9.5 32 +28 +30 жарко 1016.3 1006.9
18 24.08 Ю 2 40 км 4/0
[Ci fib]
+27.2 +9.9 34 +28 +28 жарко 1016.2 1006.7 +28.7
19 24.08 Ю 2 45 км 3/0
[Ci sp]
+25.3 +10.6 40 +26 +26 жарко 1016.3 1006.9
20 24.08 Ю 1 40 км 3/0
[Ci fib]
+22.9 +10.6 46 +25 +25 комфорт 1016.8 1007.2
21 24.08 В 1 40 км 3/0
[Ci fib]
+19.0 +10.7 59 +21 +21 комфорт 1017.0 1007.3
22 24.08 СВ 1 40 км 4/0
[Ci fib]
+17.5 +11.3 67 +19 +19 1017.2 1007.5
23 24.08 СВ 1 40 км 8/0
[Ci sp]
+16.6 +11.3 71 +17 +17 1017.3 1007.5
00 25.08 СВ 1 40 км 8/0
[Ci sp]
+16.6 +11.6 72 +17 +17 1017.2 1007.4
01 25.08 СВ 2 30 км 8/0
[Ac trans Ci sp]
+17.0 +11.6 70 +17 +17 1017.1 1007.4
02 25.08 В 2 40 км 8/0
[Ac trans Ci fib]
+16.8 +11.3 70 +17 +17 1017.1 1007.3
03 25.08 СВ 2 40 км н/о +15.8 +10.8 72 +16 +16 1016.9 1007.1
04 25.08 СВ 3 30 км 5/0
[Ac trans Ci fib]
+16.1 +11.1 72 +16 +16 1016.7 1006.9
05 25.08 В 1 20 км 5/0
[Ac trans Ci fib]
+15.5 +11.2 76 +16 +16 1016.9 1007.1
06 25.08 СВ 3 15 км 8/0
[Ac cast Ci fib]
+15.9 +12.0 78 +15 +16 1016.8 1007.0 +14.8
07 25.08 В 3 15 км 6/0
[Ac cast Ci fib]
+17.3 +13.0 76 +17 +18 1016.9 1007.1
08 25.08 В 3 17 км 6/0
[Ac cast Ci fib]
+20.4 +14.0 67 +23 +25 комфорт 1017.3 1007.6
09 25.08 В 2 20 км 6/0
[Ac cast Ci fib]
+22.9 +14.2 58 +26 +31 жарко 1017.6 1008.1
10 25.08 ЮВ 2 25 км 5/0
[Ac cast Ci fib]
+25.7 +14.6 50 +28 +35 жарко 1017.5 1008.1
11 25.08 ЮВ 1 30 км 5/0
[Ac cast Ci fib]
+27.3 +13.8 43 +29 +39 жарко 1017.4 1007.9
12 25.08 ЮЗ 2 35 км 4/0
[Ac cast Cc]
+28.9 +13.2 38 +30 +39 жарко 1017.3 1007.9

 

Местоположение метеостанции Авиабаза Brize Norton (Великобритания): широта 51.75 долгота -1.58 высота над уровнем моря 81 м.

В архиве по умолчанию представлена погода на Авиабазе Brize Norton за последнюю неделю. Архивные данные за месяц целиком и за предыдущие месяцы, начиная с января 2011 года, Вы можете получить, выбрав интересующий диапазон дат из раскрывающегося списка и нажав кнопку "Ввод!".


*Определитесь, кто Вы:
робот инопланетянин человек

Внимание! Время в таблицах - всемирное. Для получения местного времени необходимо прибавить поправку, которая равна 0 ч.

Смотрите также архив погоды в соседних городах и на ближайших метеорологических станциях:

Погода в Литл Ризсингтон (Великобритания) (15 км)
Погода в Бенсоне (Великобритания) (37 км)
Погода в Линхеме (Великобритания) (39 км)
Погода в Першоре (Великобритания) (54 км)
Погода в Хай-Уикоме (Великобритания) (54 км)
Погода в Ларкхилле (Великобритания) (63 км)
Погода в Боскомб Даун (Великобритания) (66 км)
Погода в Мидл Уоллоп (Великобритания) (67 км)
Погода в Черч Лоуфорд (Великобритания) (71 км)
Погода в Одихеме (Великобритания) (72 км)

Пояснения к столбцам:

Ветер - указаны скорость ветра в м/с - средняя за 10 мин, порывы в срок и между сроками (в фигурных скобках) и направление, откуда дует ветер: С - северный, СВ - северо-восточный, В - восточный, ЮВ - юго-восточный, Ю - южный, ЮЗ - юго-западный, З - западный, СЗ - северо-западный.
Видимость - горизонтальная дальность видимости в метрах или километрах. При видимости от 1 до 10 км при отсутствии осадков обычно наблюдается дымка, при ухудшении видимости до 1 км и менее - туман. В сухую погоду видимость может ухудшаться дымом, пылью или мглою.
Явления - указаны атмосферные явления, наблюдавшиеся в срок или в последний час перед сроком; фигурными скобками обозначены явления, наблюдавшиеся между сроками (за 1-3 часа до срока); квадратными скобками обозначены град или гололедные отложения с указанием их диаметра в мм.
Облачность - указаны через наклонную черту общая и нижняя облачность в баллах и высота нижней границы облаков в метрах; квадратными скобками обозначены формы облаков: Ci - перистые, Cs - перисто-слоистые, Cc - перисто-кучевые, Ac - высококучевые, As - высокослоистые, Sc - слоисто-кучевые, Ns - слоисто-дождевые, Cu - кучевые, Cb - кучево-дождевые. Подробнее классификацию облаков см. в Атласе облаков (PDF).
T - Температура воздуха - температура, измеренная на высоте 2 м над землей.
Td - Температура точки росы - температура, при понижении до которой содержащийся в воздухе водяной пар достигнет насыщения.
f - Относительная влажность воздуха - влажноcть воздуха, измеренная на высоте 2 м над землей.
Te - Эффективная температура - температура, которую ощущает одетый по сезону человек в тени. Характеристика душности погоды. При расчете учитывается влияние влажности воздуха и скорости ветра на теплоощущения человека.
Tes - Эффективная температура на солнце - температура, которую ощущает человек, с поправкой на солнечный нагрев. Характеристика знойности погоды. Зависит от высоты солнца над горизонтом, облачности и скорости ветра. Ночью, в пасмурную погоду, а также при ветре 12 м/с и более поправка равна нулю.
P - Атмосферное давление - приведенное к уровню моря атмосферное давление.
Po - Атмосферное давление - измеренное на уровне метеостанции атмосферное давление.
Tmin - Минимальная температура - минимум температуры воздуха на высоте 2 м над землей.
Tmax - Максимальная температура - максимум температуры воздуха на высоте 2 м над землей.
R - Количество осадков - Количество выпавших осадков за период времени, мм. При наведении курсора мыши на число - период времени, за который выпало указанное количество осадков.
R24 - Количество осадков - Количество выпавших осадков за 24 часа, мм.
S - Снежный покров - Высота снежного покрова, см. При наведении курсора мыши на число - состояние снежного покрова и степень покрытия местности в баллах.